Weather observations for the past three days for
Jackson, Jackson Municipal Airport
Imperial (Metric)
Date Time (cdt) Wind (mph) Vis. (mi.) Weather Sky Cond. Temperature (ºF) Relative Humidity Wind Chill (°F) Heat Index (°F) Pressure Precipitation (in)
Air Dwpt 6 hour altimeter (in) sea level (mb) 1 hr 3 hr 6 hr
Max. Min.
16 03:51 NW 5 10.00 Fair CLR 62.6 59 88% 29.88 0.0
15 21:21 NW 6 10.00 Fair CLR 71.6 66.2 83% 29.84 0.0
15 20:47 NW 12 10.00 Fair CLR 73.4 64.4 74% 29.82 0.0
15 20:29 NW 14 G 23 10.00 Partly Cloudy SCT045 75.2 66.2 74% 77 29.81 0.0
15 20:10 N 15 G 23 10.00 Mostly Cloudy SCT023 SCT036 BKN046 77 66.2 69% 79 29.8 0.0
15 19:36 NW 15 G 23 10.00 Mostly Cloudy SCT024 BKN039 BKN049 78.8 68 70% 81 29.79 0.0
15 19:19 N 15 G 23 10.00 Overcast BKN024 BKN038 OVC047 78.8 69.8 74% 81 29.78 0.0
15 19:00 N 14 G 28 10.00 Mostly Cloudy BKN025 BKN033 BKN041 80.6 69.8 70% 84 29.77 0.0
15 18:36 N 18 G 26 10.00 Partly Cloudy SCT033 SCT041 82.4 69.8 66% 86 29.77 0.0
15 18:16 NW 17 G 24 10.00 Fair CLR 84.2 69.8 62% 88 29.76 0.0
15 17:55 NW 15 10.00 Fair CLR 84.2 68 58% 87 29.76 0.0
15 17:39 NW 15 G 23 10.00 Fair CLR 86 71.6 62% 92 29.75 0.0
15 17:22 NW 12 10.00 Fair CLR 86 73.4 66% 93 29.74 0.0
15 17:07 NW 14 G 18 10.00 Partly Cloudy SCT022 86 73.4 66% 93 29.75 0.0
15 16:44 NW 14 10.00 Fair CLR 86 75.2 70% 95 29.76 0.0
15 16:13 W 7 10.00 Fair CLR 84.2 75.2 74% 92 29.77 0.0
15 14:17 S 7 10.00 Light Rain SCT070 SCT095 BKN110 80.6 73.4 79% 85 29.79 0.0
15 14:02 SW 6 10.00 Light Rain SCT065 SCT075 BKN110 80.6 71.6 74% 85 29.81 0.0
15 13:39 SW 6 10.00 Light Rain SCT070 SCT075 BKN110 82.4 71.6 70% 87 29.8 0.0
15 13:22 W 8 10.00 Partly Cloudy SCT075 SCT095 SCT120 84.2 71.6 66% 90 29.81 0.0
15 13:09 SW 3 10.00 Partly Cloudy SCT095 SCT120 82.4 71.6 70% 87 29.8 0.0
15 12:36 Calm 10.00 Fair CLR 82.4 71.6 70% 87 29.81 0.0
15 12:15 SW 3 10.00 Fair CLR 82.4 71.6 70% 87 29.8 0.0
15 11:59 S 6 10.00 Fair CLR 82.4 71.6 70% 87 29.81 0.0
15 11:39 S 7 10.00 Fair CLR 80.6 71.6 74% 85 29.82 0.0
15 11:15 SW 6 10.00 Partly Cloudy SCT019 80.6 71.6 74% 85 29.84 0.0
15 10:56 S 7 10.00 Fair CLR 80.6 71.6 74% 85 29.83 0.0
15 10:35 S 7 10.00 Partly Cloudy SCT013 80.6 71.6 74% 85 29.84 0.0
15 10:18 S 8 10.00 Partly Cloudy SCT013 78.8 71.6 79% 82 29.86 0.0
15 09:55 SE 14 10.00 Fair CLR 77 71.6 83% 78 29.81 0.0
15 09:35 E 12 10.00 Partly Cloudy SCT022 77 69.8 79% 79 29.84 0.0
15 09:15 E 10 10.00 Partly Cloudy SCT022 75.2 69.8 83% 75 29.86 0.0
15 08:56 E 9 10.00 Fair CLR 75.2 69.8 83% 75 29.86 0.0
15 08:45 E 8 10.00 Partly Cloudy SCT022 SCT030 73.4 69.8 89% 29.86 0.0
14 23:51 Calm 10.00 Fair CLR 71.6 66.2 83% 29.91 0.0
14 07:39 NW 12 10.00 Mostly Cloudy BKN024 75.2 71.6 89% 75 29.9 0.0
14 06:26 W 9 10.00 Partly Cloudy SCT016 73.4 71.6 94% 29.95 0.0
14 03:50 SW 5 10.00 Partly Cloudy SCT037 73.4 71.6 94% 29.9 0.0
13 21:12 S 6 10.00 Fair CLR 82.4 75.2 79% 89 29.92 0.0
13 16:10 SW 10 10.00 Partly Cloudy SCT035 91.4 73.4 56% 100 29.96 0.0
13 06:19 S 7 7.00 Fair CLR 69.8 68 94% 30.01 0.0
13 05:25 S 9 7.00 Fair CLR 69.8 68 94% 30 0.0
Date Time (cdt) Wind (mph) Vis. (mi.) Weather Sky Cond. Air Dwpt Max. Min. Relative Humidity Wind Chill (°F) Heat Index (°F) altimeter (in) sea level (mb) 1 hr 3 hr 6 hr
6 hour
Temperature (ºF) Pressure Precipitation (in)